Date,TemperatureHighF,TemperatureAvgF,TemperatureLowF,DewpointHighF,DewpointAvgF,DewpointLowF,HumidityHigh,HumidityAvg,HumidityLow,PressureMaxIn,PressureMinIn,WindSpeedMaxMPH,WindSpeedAvgMPH,GustSpeedMaxMPH,PrecipitationSumIn
2013-1-1,32.0,20.1,7.0,28.0,17.3,4.0,100,87,48,29.37,29.21,17,4,19,0.01
2013-1-2,17.0,6.2,-3.0,14.0,3.1,-6.0,100,81,50,29.51,29.36,17,4,26,0.00
2013-1-3,22.0,7.4,-4.0,18.0,5.5,-6.0,100,86,56,29.63,29.49,12,3,16,0.00
2013-1-4,32.0,19.9,2.0,28.0,17.8,4.0,100,89,75,29.49,29.31,17,4,18,0.00
2013-1-5,34.0,24.8,6.0,29.0,16.8,4.0,100,71,38,29.84,29.31,25,4,26,0.00
2013-1-6,28.0,18.1,7.0,28.0,18.5,8.0,100,98,85,29.79,29.50,15,2,15,0.00
2013-1-7,21.0,13.8,4.0,21.0,12.2,4.0,100,89,59,29.96,29.55,16,4,19,0.00
2013-1-8,41.0,29.9,14.0,32.0,25.7,14.0,100,84,57,29.94,29.82,31,5,31,0.23
2013-1-9,40.0,31.5,18.0,38.0,28.6,18.0,100,88,61,30.01,29.45,13,3,13,0.02
2013-1-10,44.0,36.2,27.0,33.0,26.5,21.0,91,67,44,30.04,29.45,19,5,31,0.00
2013-1-11,27.0,24.6,24.0,21.0,19.8,18.0,82,79,74,30.05,30.03,10,2,10,0.00
2013-1-12,40.0,38.9,37.0,38.0,36.7,35.0,98,91,83,29.79,29.71,11,2,11,0.00
2013-1-13,47.0,42.2,37.0,47.0,42.2,37.0,100,100,96,29.75,29.57,17,3,17,0.02
2013-1-14,57.0,42.4,33.0,54.0,36.0,24.0,100,79,50,29.79,29.49,20,5,20,0.01
2013-1-15,38.0,31.3,24.0,29.0,22.9,18.0,99,71,49,29.91,29.77,11,2,12,0.00
2013-1-16,36.0,30.4,26.0,36.0,28.0,18.0,100,89,63,29.87,29.38,17,4,17,0.23
2013-1-17,42.0,29.7,12.0,37.0,20.6,-6.0,100,69,33,29.72,29.36,22,6,22,0.15
2013-1-18,14.0,8.6,1.0,4.0,-3.0,-6.0,81,55,35,29.94,29.67,15,4,22,0.00
2013-1-19,34.0,24.8,10.0,31.0,22.2,4.0,100,88,69,29.92,29.53,19,2,22,0.03
2013-1-20,48.0,36.5,21.0,42.0,28.7,8.0,100,75,40,29.53,29.08,33,6,34,0.05
2013-1-21,24.0,16.8,11.0,16.0,3.8,-6.0,100,53,32,29.61,29.38,19,5,26,0.00
2013-1-22,15.0,8.7,-2.0,16.0,2.0,-6.0,100,70,51,29.50,29.33,21,5,21,0.00
2013-1-23,7.0,1.1,-5.0,-6.0,-8.1,-13.0,73,56,38,29.56,29.47,24,6,27,0.00
2013-1-24,10.0,1.4,-7.0,0.0,-8.4,-13.0,81,62,37,29.55,29.39,24,5,27,0.00
2013-1-25,21.0,9.5,0.0,8.0,1.6,-6.0,82,64,38,29.69,29.53,19,4,25,0.00
2013-1-26,19.0,10.9,3.0,8.0,0.0,-6.0,85,56,33,29.61,29.51,17,4,18,0.00
2013-1-27,23.0,13.5,5.0,11.0,4.3,0.0,82,62,43,29.91,29.60,22,5,23,0.00
2013-1-28,27.0,17.4,6.0,21.0,7.5,0.0,100,66,26,29.95,29.65,12,3,13,0.00
2013-1-29,38.0,26.2,14.0,26.0,20.3,14.0,100,79,47,29.81,29.63,9,2,11,0.00
2013-1-30,54.0,43.8,30.0,54.0,43.4,24.0,100,98,78,29.77,29.12,32,8,32,0.36
2013-1-31,57.0,47.1,31.0,56.5,42.4,14.0,100,85,46,29.12,28.48,44,12,48,0.19
2013-2-1,32.0,22.9,11.0,16.0,8.1,4.0,70,50,35,29.51,28.97,31,6,31,0.00
2013-2-2,25.0,16.1,2.0,18.0,8.5,0.0,99,70,37,29.73,29.51,14,3,17,0.00
2013-2-3,29.0,22.1,18.0,21.0,19.2,16.0,100,87,66,29.61,29.21,23,6,23,0.01
2013-2-4,28.0,19.8,13.0,18.0,9.4,-6.0,97,63,36,29.32,29.11,26,6,29,0.06
2013-2-5,24.0,13.7,8.0,11.0,1.2,-6.0,78,52,30,29.56,29.32,22,4,22,0.00
2013-2-6,36.0,21.1,10.0,31.0,12.1,0.0,99,66,39,29.75,29.47,19,4,19,0.01
2013-2-7,15.0,8.1,2.0,4.0,-5.6,-13.0,74,49,25,30.08,29.75,15,4,19,0.00
2013-2-8,19.0,9.9,2.0,18.0,6.3,-6.0,100,81,56,30.08,29.43,29,7,31,0.00
2013-2-9,15.0,12.1,9.0,16.0,13.2,-6.0,100,100,100,29.55,29.13,42,12,42,0.28
2013-2-10,32.0,19.7,9.0,32.0,18.2,11.0,100,92,56,29.86,29.55,19,4,20,0.00
2013-2-11,40.0,25.3,7.0,40.0,25.4,8.0,100,98,86,29.83,29.13,25,3,25,0.34
2013-2-12,45.0,37.4,32.0,38.0,32.7,29.0,100,83,61,29.30,29.05,19,5,19,0.02
2013-2-13,46.0,34.8,27.0,31.0,27.6,23.0,100,76,43,29.37,29.25,12,3,14,0.00
2013-2-14,41.0,31.7,21.0,24.0,20.7,14.0,95,64,35,29.53,29.27,17,4,17,0.00
2013-2-15,45.0,35.6,19.0,38.0,32.6,18.0,100,88,71,29.58,29.49,25,4,26,0.00
2013-2-16,36.0,31.3,26.0,35.0,30.8,26.0,100,97,81,29.51,29.30,17,3,21,0.00
2013-2-17,26.0,20.8,17.0,26.0,20.0,14.0,100,94,74,29.30,28.53,30,9,39,0.10
2013-2-18,29.0,20.7,15.0,14.0,5.7,4.0,76,50,35,29.43,28.78,37,7,40,0.01
2013-2-19,45.0,30.5,16.0,41.0,15.9,4.0,100,56,20,29.65,29.28,19,5,19,0.11
2013-2-20,44.0,37.0,28.0,43.0,30.8,16.0,100,79,49,29.28,28.97,36,7,36,0.98
2013-2-21,35.0,27.3,21.0,31.0,20.3,14.0,92,73,50,29.65,29.12,32,6,32,0.00
2013-2-22,40.0,32.2,24.0,26.0,21.3,18.0,84,63,41,29.96,29.65,20,5,22,0.00
2013-2-23,32.0,28.5,23.0,29.0,26.2,21.0,100,89,83,29.91,29.65,15,5,16,0.00
2013-2-24,31.0,28.5,26.0,31.0,28.1,24.0,100,97,85,29.66,29.36,19,5,20,0.01
2013-2-25,40.0,27.5,17.0,24.0,15.7,4.0,91,63,22,29.77,29.44,20,5,20,0.05
2013-2-26,42.0,30.8,17.0,29.0,22.3,14.0,100,71,51,29.96,29.77,12,3,12,0.00
2013-2-27,41.0,32.0,22.0,32.0,28.2,23.0,100,86,53,29.84,29.35,30,7,30,0.01
2013-2-28,40.0,36.1,32.0,40.0,36.2,32.0,100,100,100,29.35,29.10,27,8,28,0.57
2013-3-1,33.0,31.5,30.0,33.0,31.5,29.0,100,99,96,29.23,29.08,16,5,21,0.06
2013-3-2,39.0,33.1,30.0,37.0,32.8,31.0,100,98,86,29.22,29.17,12,3,14,0.26
2013-3-3,46.0,35.4,32.0,39.0,34.8,32.0,100,97,67,29.21,29.06,9,3,10,0.05
2013-3-4,36.0,32.6,30.0,36.0,32.7,31.0,100,100,98,29.25,29.03,21,4,21,0.29
2013-3-5,45.0,36.7,34.0,38.0,35.2,33.0,100,93,69,29.75,29.25,21,6,21,0.04
2013-3-6,39.0,34.8,32.0,35.0,31.2,26.0,99,87,66,29.90,29.75,24,7,24,0.01
2013-3-7,38.0,34.0,32.0,26.0,25.0,24.0,77,69,57,29.84,29.76,34,9,34,0.00
2013-3-8,46.0,37.0,30.0,26.0,22.6,18.0,80,56,35,29.85,29.69,21,8,31,0.00
2013-3-9,43.0,33.3,27.0,26.0,23.9,23.0,89,69,42,30.00,29.79,23,6,23,0.00
2013-3-10,37.0,30.4,26.0,31.0,26.2,24.0,97,83,64,30.09,29.95,10,4,13,0.00
2013-3-11,44.0,38.6,32.0,40.0,35.7,31.0,99,89,72,29.96,29.82,18,5,22,0.00
2013-3-12,52.0,44.8,40.0,46.0,43.0,39.0,100,94,76,29.84,29.50,23,8,24,0.55
2013-3-13,49.0,41.5,29.0,49.0,41.1,29.0,100,98,87,29.50,29.31,26,6,26,0.76
2013-3-14,41.0,36.2,28.0,35.0,27.6,24.0,100,72,50,29.36,29.25,12,5,16,0.00
2013-3-15,36.0,24.8,17.0,18.0,12.9,8.0,94,60,31,29.37,29.21,17,4,21,0.02
2013-3-16,37.0,26.8,18.0,24.0,16.2,8.0,100,64,34,29.50,29.21,14,4,19,0.00
2013-3-17,31.0,21.8,12.0,21.0,6.9,-6.0,100,52,22,29.86,29.47,23,4,27,0.00
2013-3-18,35.0,21.1,8.0,14.0,4.1,0.0,75,47,22,30.04,29.86,20,3,20,0.00
2013-3-19,27.0,24.4,22.0,26.0,20.1,8.0,100,84,37,29.93,29.28,27,7,29,0.00
2013-3-20,35.0,25.8,16.0,31.0,22.7,16.0,100,87,65,29.33,29.16,26,6,29,0.08
2013-3-21,40.0,32.0,23.0,28.0,20.8,8.0,100,64,31,29.43,29.24,16,6,16,0.03
2013-3-22,42.0,32.4,22.0,23.0,19.0,14.0,87,58,32,29.28,29.19,18,4,21,0.00
2013-3-23,42.0,34.3,22.0,26.0,21.8,18.0,89,60,39,29.20,29.07,25,7,27,0.00
2013-3-24,46.0,37.5,27.0,29.0,25.1,21.0,88,62,38,29.41,29.19,18,4,19,0.00
2013-3-25,43.0,37.8,30.0,32.0,28.9,26.0,95,70,53,29.41,29.26,14,5,17,0.00
2013-3-26,46.0,33.2,29.0,29.0,24.6,23.0,84,71,38,29.32,29.15,19,6,23,0.00
2013-3-27,37.0,36.2,33.0,37.0,35.4,29.0,99,96,84,29.45,29.30,5,3,6,0.19
2013-3-28,48.0,42.1,37.0,35.0,33.2,32.0,85,71,55,29.60,29.54,9,4,10,0.01
2013-3-29,48.0,44.9,41.0,39.0,33.6,31.0,88,65,52,29.64,29.61,9,2,9,0.00
2013-3-30,55.0,40.6,31.0,28.0,23.6,16.0,80,57,22,29.69,29.65,13,4,16,0.00
2013-3-31,46.0,37.6,34.0,36.0,29.9,24.0,87,74,50,29.81,29.66,5,3,7,0.00
2013-4-1,46.0,39.7,32.0,45.0,39.2,29.0,100,98,84,29.33,29.16,17,5,22,0.78
2013-4-2,37.0,33.2,29.0,29.0,13.4,8.0,90,43,31,29.42,29.27,26,8,31,0.03
2013-4-3,41.0,33.9,27.0,21.0,15.5,8.0,71,46,31,29.61,29.38,27,8,30,0.00
2013-4-4,50.0,37.5,28.0,36.0,18.0,8.0,86,47,17,29.85,29.60,25,7,27,0.00
2013-4-5,51.0,42.5,35.0,36.0,32.2,23.0,85,67,42,29.62,29.34,23,6,24,0.00
2013-4-6,40.0,32.2,23.0,23.0,10.5,0.0,64,40,16,29.95,29.39,23,5,27,0.00
2013-4-7,44.0,38.3,22.0,39.0,28.2,8.0,90,67,46,29.99,29.64,28,10,30,0.00
2013-4-8,59.0,46.4,36.0,44.0,36.6,31.0,98,71,37,29.80,29.55,24,7,25,0.00
2013-4-9,42.0,39.3,34.0,42.0,38.2,31.0,100,95,82,29.81,29.57,13,3,15,0.38
2013-4-10,57.0,42.3,39.0,50.5,41.0,39.0,100,96,66,29.68,29.58,18,3,18,0.07
2013-4-11,49.0,41.0,37.0,21.0,18.7,14.0,51,42,23,29.70,29.63,22,14,22,0.00
2013-4-12,40.0,34.6,32.0,33.0,28.5,16.0,100,81,44,29.91,29.58,18,7,20,0.17
2013-4-13,42.0,35.9,32.0,38.0,34.7,32.0,100,95,80,29.59,29.42,17,4,19,0.24
2013-4-14,47.0,38.9,36.0,43.0,38.4,36.0,100,98,77,29.80,29.57,6,2,7,0.10
2013-4-15,48.0,41.0,33.0,40.0,37.5,33.0,100,87,70,30.10,29.95,12,5,13,0.00
2013-4-16,52.0,46.3,39.0,45.0,40.4,36.0,97,81,57,30.09,29.67,25,9,25,0.07
2013-4-17,61.0,55.5,45.0,38.0,28.7,23.0,60,36,24,29.98,29.76,22,6,22,0.19
2013-4-18,43.0,40.8,39.0,24.0,20.4,18.0,48,43,37,30.17,30.14,8,4,10,0.00
2013-4-19,61.0,57.6,51.0,60.0,56.9,51.0,100,98,87,29.70,29.42,24,11,32,0.00
2013-4-20,57.0,49.9,43.0,57.0,47.9,39.0,100,93,86,29.70,29.29,28,7,28,0.52
2013-4-21,51.0,46.0,41.0,28.0,14.9,8.0,48,27,20,30.36,30.12,20,6,20,0.00
2013-4-22,47.0,38.8,28.0,33.0,22.6,11.0,100,54,29,30.52,30.34,14,5,19,0.00
2013-4-23,44.0,38.1,29.0,42.0,36.0,29.0,100,92,70,30.30,29.92,15,6,15,0.07
2013-4-24,56.0,47.5,42.0,56.0,47.4,42.0,100,100,97,29.92,29.48,15,6,19,0.58
2013-4-25,64.0,52.7,43.0,53.0,40.0,24.0,100,69,26,29.96,29.54,20,6,23,0.05
2013-4-26,57.0,46.6,34.0,41.0,31.3,28.0,93,56,35,30.17,29.96,15,5,18,0.00
2013-4-27,61.0,46.7,29.0,40.0,31.3,21.0,100,60,31,30.16,30.01,12,4,15,0.00
2013-4-28,61.0,50.2,31.0,42.0,38.0,31.0,99,65,45,30.14,29.96,13,4,15,0.00
2013-4-29,63.0,48.0,33.0,46.0,38.2,33.0,100,73,36,30.08,29.95,20,4,20,0.00
2013-4-30,67.0,49.8,35.0,47.0,34.8,26.0,100,63,24,30.14,30.01,13,3,17,0.00
2013-5-1,69.0,50.7,34.0,44.0,33.0,21.0,99,58,18,30.22,30.08,17,4,17,0.00
2013-5-2,62.0,48.2,35.0,45.0,38.8,32.0,94,72,40,30.31,30.12,16,4,17,0.00
2013-5-3,64.0,50.4,41.0,46.0,40.2,36.0,88,70,42,30.31,30.07,16,5,21,0.00
2013-5-4,57.0,46.9,37.0,41.0,36.6,31.0,96,69,39,30.11,29.98,18,6,18,0.00
2013-5-5,62.0,47.3,31.0,43.0,37.0,31.0,100,71,38,30.08,29.91,18,4,18,0.00
2013-5-6,63.0,48.3,34.0,47.5,41.4,35.0,100,80,47,29.96,29.85,13,4,20,0.00
2013-5-7,69.0,51.5,42.0,54.5,47.4,42.0,100,88,46,29.88,29.80,20,4,20,0.00
2013-5-8,68.0,56.9,47.0,59.5,53.4,47.0,100,89,70,29.96,29.83,13,5,18,0.00
2013-5-9,55.0,52.8,50.0,55.0,52.8,50.0,100,100,100,29.74,29.58,11,4,11,0.61
2013-5-10,66.0,55.5,48.0,59.0,53.9,48.0,100,95,72,29.62,29.55,11,3,11,0.01
2013-5-11,58.0,52.9,48.0,58.0,52.8,48.0,100,100,94,29.60,29.37,15,6,22,0.21
2013-5-12,57.0,53.3,50.0,57.0,53.3,50.0,100,100,100,29.36,29.21,14,4,14,0.32
2013-5-13,56.0,50.6,45.0,40.0,36.8,32.0,82,60,43,29.61,29.51,24,6,24,0.05
2013-5-14,59.0,49.1,39.0,39.0,32.1,28.0,93,53,29,29.64,29.55,13,3,15,0.00
2013-5-15,61.0,50.1,35.0,49.0,35.3,24.0,100,62,26,29.64,29.39,21,5,25,0.28
2013-5-16,72.0,60.3,51.0,60.0,49.8,41.0,100,71,44,29.39,29.22,17,4,17,0.04
2013-5-17,62.0,52.3,43.0,49.0,39.5,33.0,94,64,39,29.78,29.39,22,4,23,0.00
2013-5-18,58.0,48.0,36.0,45.0,39.4,35.0,95,73,51,29.96,29.78,15,4,16,0.00
2013-5-19,57.0,47.7,35.0,49.0,42.8,35.0,100,85,57,30.02,29.89,16,5,16,0.00
2013-5-20,58.0,52.5,49.0,57.5,52.3,49.0,100,99,94,29.89,29.56,10,4,11,0.90
2013-5-21,52.0,49.3,48.0,52.0,49.3,48.0,100,100,98,29.68,29.60,11,3,11,0.19
2013-5-22,53.0,49.6,47.0,52.0,49.5,47.0,100,100,96,29.67,29.54,15,5,16,0.55
2013-5-23,61.0,54.1,47.0,60.5,53.9,47.0,100,99,90,29.57,29.47,15,4,19,0.00
2013-5-24,62.0,56.9,50.0,62.0,56.9,50.0,100,100,99,29.47,29.31,32,5,32,1.64
2013-5-25,51.0,50.2,49.0,51.0,50.2,49.0,100,100,98,29.43,29.31,26,8,26,0.45
2013-5-26,51.0,48.3,47.0,50.0,48.0,47.0,100,98,95,29.35,29.23,8,5,8,0.00
2013-5-27,61.0,57.2,54.0,42.0,36.9,33.0,61,48,38,29.73,29.62,13,3,14,0.11
2013-5-28,69.0,51.7,46.0,39.0,36.9,33.0,72,60,30,29.86,29.83,23,2,23,0.00
2013-5-29,54.0,52.4,51.0,54.0,52.4,51.0,100,100,100,29.83,29.65,10,4,13,0.46
2013-5-30,56.0,55.5,55.0,56.0,55.5,55.0,100,100,100,29.64,29.61,2,1,2,0.02
2013-5-31,87.0,85.3,83.0,65.5,61.9,59.5,52,46,42,29.69,29.61,19,9,19,0.01
2013-6-1,87.0,80.2,61.0,67.5,63.3,60.0,100,58,46,29.62,29.53,19,8,24,0.00
2013-6-2,80.0,73.6,62.0,68.0,63.4,60.0,95,71,59,29.51,29.43,20,7,26,0.02
2013-6-3,71.0,61.3,57.0,64.5,59.8,57.0,100,95,71,29.52,29.43,14,3,17,0.01
2013-6-4,68.0,60.9,49.0,50.5,42.0,39.0,72,51,41,29.67,29.50,15,3,15,0.00
2013-6-5,69.0,57.4,45.0,50.0,45.6,39.0,88,67,37,29.85,29.69,12,3,16,0.00
2013-6-6,69.0,59.8,44.0,54.0,44.1,35.0,100,60,29,29.92,29.81,9,3,14,0.00
2013-6-7,63.0,56.1,52.0,54.0,49.6,41.0,100,82,49,29.84,29.67,12,4,12,0.34
2013-6-8,63.0,55.3,52.0,61.5,54.7,52.0,100,98,81,29.67,29.31,23,6,23,2.03
2013-6-9,66.0,58.0,52.0,60.0,55.4,51.0,100,92,72,29.79,29.65,11,2,11,0.01
2013-6-10,71.0,61.0,54.0,60.0,53.8,49.0,100,79,53,29.95,29.76,10,2,10,0.00
2013-6-11,55.0,53.8,52.0,54.0,53.6,52.0,100,99,93,29.76,29.21,20,4,20,0.78
2013-6-12,59.0,56.4,51.0,58.0,55.7,51.0,100,98,93,29.39,29.16,22,5,25,0.57
2013-6-13,69.0,58.3,51.0,59.0,53.3,51.0,100,85,54,29.48,29.39,14,4,15,0.18
2013-6-14,63.0,59.1,50.0,56.5,51.7,46.0,100,78,61,29.42,29.37,8,4,10,0.00
2013-6-15,76.0,57.8,44.0,53.5,46.4,40.0,100,72,30,29.54,29.38,12,2,12,0.00
2013-6-16,77.0,73.1,63.0,55.0,50.1,47.0,75,45,38,29.59,29.50,15,8,18,0.00
2013-6-17,78.0,67.4,62.0,64.0,61.2,57.5,100,84,51,29.53,29.49,14,3,14,0.73
2013-6-18,71.0,65.3,60.0,60.5,57.2,54.0,100,76,63,29.66,29.61,5,0,5,0.00
2013-6-19,64.0,58.4,55.0,47.5,46.2,46.0,71,64,53,29.76,29.67,10,2,10,0.00
2013-6-20,77.0,71.2,59.0,53.5,50.8,44.0,82,51,37,29.92,29.90,15,8,18,0.00
2013-6-21,78.0,77.5,77.0,56.0,54.6,52.0,46,45,42,29.87,29.87,14,10,17,0.00
2013-6-22,73.0,70.8,64.0,64.0,61.1,57.5,88,72,60,29.88,29.81,6,2,17,0.00
2013-6-23,71.0,64.5,59.0,66.0,62.4,59.0,100,93,77,29.83,29.65,11,3,11,0.39
2013-6-24,88.0,71.0,63.0,72.7,66.5,63.0,100,88,52,29.66,29.53,8,1,11,0.01
2013-6-25,87.0,84.1,76.0,70.5,66.5,63.0,76,56,46,29.56,29.42,15,6,20,0.00
2013-7-12,74.0,74.0,74.0,58.0,58.0,58.0,58,58,58,30.13,30.13,11,6,11,0.00
2013-7-19,86.0,80.0,74.0,72.0,70.3,69.0,86,73,63,29.36,29.24,9,3,9,0.00
2013-7-20,89.0,79.2,69.0,73.0,69.9,67.0,100,76,52,29.29,29.19,9,3,9,0.07
2013-7-21,80.0,68.6,55.0,69.0,58.5,53.0,100,73,44,29.58,29.24,9,2,9,0.01
2013-7-22,72.0,62.8,52.0,63.0,56.6,52.0,100,83,58,29.65,29.52,9,2,9,0.00
2013-7-23,67.0,63.3,58.0,66.0,63.3,58.0,100,100,99,29.52,29.11,9,2,9,1.08
2013-7-24,82.0,70.4,63.0,72.0,67.2,56.0,100,91,66,29.46,29.13,9,2,9,0.00
2013-7-25,74.0,60.9,56.0,60.0,54.1,50.0,98,80,55,29.69,29.52,9,2,9,0.01
2013-7-26,69.0,64.5,61.0,68.0,64.2,60.0,100,99,97,29.67,29.41,9,4,9,0.88
2013-7-27,81.0,70.1,60.0,70.0,64.4,60.0,100,84,59,29.60,29.41,9,2,9,0.04
2013-7-28,71.0,65.0,60.0,69.0,63.7,60.0,100,96,86,29.65,29.59,9,4,9,0.01
2013-7-29,70.0,65.4,61.0,66.0,64.0,61.0,100,96,88,29.62,29.57,8,3,8,0.00
2013-7-30,82.0,71.6,62.0,70.0,63.9,58.0,100,79,47,29.62,29.57,9,2,9,0.01
2013-7-31,80.0,69.0,54.0,66.0,58.6,54.0,100,73,46,29.69,29.56,9,2,9,0.00
2013-8-1,75.0,71.2,60.0,66.0,63.1,60.0,100,76,61,29.60,29.53,17,6,17,0.00
2013-8-2,69.0,64.5,63.0,68.0,64.3,63.0,100,99,93,29.41,29.34,10,3,13,0.40
2013-8-3,75.0,64.4,58.0,67.0,61.9,58.0,100,93,64,29.37,29.29,14,2,18,0.12
2013-8-4,79.0,64.7,54.0,66.0,59.6,54.0,100,86,53,29.34,29.27,7,2,10,0.01
2013-8-5,72.0,63.4,50.0,59.0,54.6,50.0,100,76,55,29.45,29.30,10,2,14,0.01
2013-8-6,77.0,71.8,47.0,59.0,54.9,47.0,99,58,45,29.68,29.52,18,5,18,0.00
2013-8-7,75.0,70.6,57.0,59.0,54.3,47.0,93,58,44,29.76,29.69,14,7,15,0.00
2013-8-8,63.0,61.4,57.0,63.0,61.4,55.0,100,100,93,29.69,29.62,11,5,11,0.17
2013-8-9,69.0,66.5,63.0,69.0,66.5,63.0,100,100,100,29.54,29.23,20,5,23,2.33
2013-8-10,81.0,71.7,64.0,75.0,59.9,48.0,100,71,37,29.44,29.24,21,3,21,0.00
2013-8-11,78.0,71.1,63.0,59.0,56.2,53.0,81,62,45,29.57,29.51,10,4,11,0.00
2013-8-12,77.0,75.4,75.0,59.0,56.6,56.0,53,52,52,29.51,29.47,16,10,16,0.00
2013-8-13,67.0,66.6,66.0,64.0,62.9,62.0,90,88,85,29.43,29.42,8,6,8,0.00
2013-8-14,66.0,62.1,61.0,63.0,62.1,61.0,100,100,90,29.42,29.17,7,1,7,0.00
2013-8-15,75.0,73.2,71.0,56.0,54.8,51.0,61,53,48,29.55,29.53,14,5,14,0.00
2013-8-16,77.0,69.5,61.0,62.0,57.6,53.0,97,69,46,29.68,29.62,14,5,16,0.00
2013-8-17,81.0,75.5,57.0,65.0,57.3,51.0,100,56,39,29.81,29.75,12,2,12,0.00
2013-8-18,77.0,64.3,60.0,61.0,60.4,54.0,95,88,45,29.79,29.78,7,2,8,0.00
2013-8-19,84.0,77.0,60.0,66.0,62.7,59.0,100,63,49,29.51,29.43,13,4,14,0.00
2013-8-20,83.0,78.5,68.0,68.0,66.4,65.0,94,68,58,29.60,29.54,7,2,7,0.00
2013-8-21,85.0,79.4,67.0,67.0,64.3,61.0,90,61,47,29.67,29.55,17,6,17,0.00
2013-8-22,85.0,78.5,72.0,69.0,65.6,62.0,82,66,48,29.48,29.32,14,4,15,0.00
2013-8-23,75.0,68.3,63.0,66.0,60.5,51.0,100,78,46,29.49,29.36,11,4,12,0.01
2013-8-24,78.0,74.3,71.0,54.0,48.4,42.0,54,40,32,29.82,29.79,15,3,16,0.00
2013-8-25,80.0,65.1,48.0,58.0,53.0,48.0,100,70,37,29.87,29.72,10,2,10,0.00
2013-8-26,74.0,63.5,58.0,66.0,61.4,58.0,100,94,75,29.53,29.39,9,3,9,0.01
2013-8-27,80.0,71.2,59.0,69.0,64.7,59.0,100,82,59,29.43,29.34,7,2,8,0.00
2013-8-28,76.0,68.5,62.0,66.0,64.4,61.0,100,88,68,29.50,29.40,10,3,10,0.11
2013-8-29,64.0,61.5,54.0,64.0,60.0,53.0,100,95,78,29.61,29.50,15,4,20,0.00
2013-8-30,73.0,58.8,48.0,64.0,55.7,48.0,100,91,70,29.45,29.27,10,2,10,0.01
2013-8-31,68.0,64.5,63.0,68.0,64.5,63.0,100,100,100,29.34,29.26,10,1,21,0.31
2013-9-2,68.0,62.6,61.0,68.0,62.6,61.0,100,100,100,29.46,29.25,22,6,22,1.84
2013-9-3,77.0,67.7,64.0,72.0,67.0,64.0,100,98,81,29.28,29.20,13,2,13,0.27
2013-9-4,79.0,72.4,62.0,66.0,61.2,53.0,100,71,42,29.31,29.24,18,4,18,0.00
2013-9-5,68.0,57.9,47.0,57.0,51.4,40.0,100,82,42,29.54,29.35,13,2,13,0.57
2013-9-6,67.0,55.6,39.0,53.0,45.2,39.0,100,72,39,29.69,29.51,10,3,11,0.00
2013-9-7,72.0,62.5,48.0,59.0,52.5,48.0,100,74,45,29.46,29.39,17,5,17,0.00
2013-9-8,63.0,59.6,58.0,60.0,58.7,57.0,100,97,87,29.20,29.15,10,1,10,0.46
2013-9-9,66.0,63.6,61.0,47.0,45.1,44.0,56,51,49,29.63,29.60,22,12,22,0.00
2013-9-10,67.0,64.2,61.0,62.0,59.5,45.0,93,85,55,29.60,29.54,22,8,22,0.00
2013-9-11,81.0,70.0,59.0,74.0,66.8,59.0,100,90,71,29.51,29.41,10,2,10,0.00
2013-9-12,75.0,67.7,64.0,71.0,66.8,64.0,100,98,83,29.49,29.19,19,4,19,0.21
2013-9-13,66.0,63.2,60.0,66.0,63.2,60.0,100,100,100,29.23,29.07,16,1,16,0.54
2013-9-14,60.0,54.1,54.0,60.0,54.1,54.0,100,100,100,29.21,29.13,2,0,2,0.00
2013-9-15,55.0,53.3,52.0,53.0,52.4,52.0,100,96,90,29.53,29.49,3,1,3,0.00
2013-9-16,64.0,57.5,48.0,59.0,55.6,45.0,100,93,77,29.58,29.46,5,1,5,0.00
2013-9-17,61.0,54.7,43.0,46.0,42.4,38.0,98,65,50,29.82,29.75,16,4,16,0.00
2013-9-18,72.0,61.4,51.0,56.0,50.6,42.0,97,72,41,29.82,29.53,13,3,14,0.00
2013-9-19,78.0,60.3,43.0,59.0,51.6,43.0,100,77,38,29.60,29.48,9,2,11,0.00
2013-9-20,76.0,60.7,45.0,59.0,51.3,45.0,100,76,43,29.60,29.45,10,3,11,0.00
2013-9-21,68.0,59.5,55.0,61.0,57.6,53.0,100,94,73,29.53,29.35,20,6,21,0.00
2013-9-22,67.0,61.6,52.0,66.0,61.4,51.0,100,99,90,29.22,29.09,31,5,31,0.91
2013-9-23,62.0,51.7,43.0,51.0,45.2,41.0,99,80,54,29.31,29.14,13,3,19,0.00
2013-9-24,53.0,49.6,47.0,48.0,45.5,42.0,95,86,74,29.28,29.24,7,1,10,0.01
2013-9-25,61.0,53.3,48.0,50.0,47.5,45.0,98,82,60,29.38,29.25,16,2,16,0.00
2013-9-26,64.0,54.4,45.0,53.0,48.5,45.0,100,82,59,29.56,29.38,20,4,23,0.00
2013-9-27,73.0,59.8,52.0,59.0,52.3,48.0,97,79,46,29.68,29.55,16,3,17,0.00
2013-9-28,72.0,56.9,45.0,61.0,51.2,45.0,100,84,44,29.82,29.66,10,2,10,0.00
2013-9-29,69.0,54.3,39.0,59.0,48.7,39.0,100,84,43,29.71,29.57,11,2,12,0.00
2013-9-30,65.0,54.0,39.0,56.0,49.9,39.0,100,88,55,29.59,29.40,11,2,12,0.00
2013-10-1,75.0,60.5,50.0,59.0,51.3,45.0,100,76,41,29.40,29.27,16,2,17,0.00
2013-10-2,80.0,62.1,49.0,63.0,54.6,49.0,100,80,43,29.31,29.22,21,2,21,0.00
2013-10-3,75.0,60.5,47.0,56.0,48.5,43.0,96,68,35,29.52,29.31,20,2,24,0.00
2013-10-4,71.0,57.6,43.0,54.0,47.1,40.0,98,71,42,29.57,29.44,14,2,14,0.00
2013-10-5,64.0,54.9,48.0,49.0,43.3,38.0,97,66,45,29.61,29.53,9,2,12,0.00
2013-10-6,143.0,49.4,42.0,65.0,36.5,-6.0,98,61,1,29.75,29.57,14,4,17,0.40
2013-12-14,65.0,15.3,6.0,46.0,2.7,-6.0,67,53,33,30.59,30.37,7,1,10,0.09
2013-12-15,19.0,13.0,7.0,18.0,10.8,0.0,92,87,64,30.37,29.27,15,2,19,0.00
2013-12-16,22.0,11.5,1.0,18.0,5.3,-6.0,92,74,53,30.13,29.57,16,1,17,0.02
2013-12-17,14.0,6.0,-9.0,11.0,-0.7,-13.0,89,68,51,30.26,29.97,8,1,10,0.00
2013-12-18,22.0,16.9,8.0,18.0,14.7,4.0,94,89,81,29.98,29.75,16,2,17,0.00
2013-12-19,32.0,23.6,7.0,29.0,21.5,4.0,96,91,81,30.04,29.87,5,0,6,0.00
2013-12-20,35.0,30.2,23.0,33.0,29.2,21.0,99,95,91,30.12,29.88,4,0,5,0.10
2013-12-21,34.0,31.2,28.0,35.0,31.2,28.0,99,98,97,29.96,29.85,8,0,11,0.14
2013-12-22,32.0,30.4,28.0,32.0,29.7,28.0,99,98,96,30.08,29.85,8,0,12,0.01
2013-12-23,33.0,30.9,28.0,33.0,30.9,28.0,100,99,97,30.11,29.95,0,0,0,0.01
2013-12-24,32.0,18.6,8.0,32.0,17.8,8.0,100,92,89,30.12,30.02,0,0,0,0.00
2013-12-25,17.0,9.2,2.0,16.0,7.5,4.0,93,89,83,30.53,30.08,0,0,0,0.00
2013-12-26,29.0,19.3,2.0,29.0,18.4,4.0,99,95,91,30.50,30.02,0,0,0,0.00
2013-12-27,32.0,19.9,11.0,29.0,19.5,11.0,98,94,86,30.16,30.04,5,0,5,0.07
2013-12-28,35.0,25.2,11.0,33.0,25.3,11.0,100,97,93,30.14,29.91,4,0,5,0.08
2013-12-29,35.0,31.1,24.0,35.0,31.3,24.0,100,100,98,30.03,29.49,9,1,10,0.69
2013-12-30,32.0,18.1,2.0,32.0,17.1,0.0,100,92,83,30.13,29.44,4,0,6,0.01
2013-12-31,11.0,2.5,-4.0,8.0,0.8,-6.0,90,84,73,30.16,30.01,0,0,0,0.00
2014-1-1,21.0,5.7,-6.0,14.0,3.5,-6.0,92,83,65,30.40,30.07,7,0,10,0.04
2014-1-2,1.0,-5.7,-9.0,0.0,-10.2,-13.0,81,77,71,30.47,29.99,13,2,16,0.00